This is the latest recevied weather packets stored in our database for station/object WA6TJQ. If no packets are shown the sender has not sent any weather packets the latest 10 day(s).
| Time | Temp. | Humidity | Pressure | Rain* | Wind** | Luminosity | Snow |
|---|---|---|---|---|---|---|---|
| 1778093975 | 13.89° C | 55% | 1013.4 hPa | 0 mm | - | - | - |
| 1778093675 | 13.33° C | 53% | 1013.3 hPa | 0 mm | - | - | - |
| 1778093375 | 13.33° C | 55% | 1013.3 hPa | 0 mm | - | - | - |
| 1778093075 | 12.78° C | 57% | 1013.4 hPa | 0 mm | - | - | - |
| 1778092775 | 12.78° C | 54% | 1013.4 hPa | 0 mm | - | - | - |
| 1778092475 | 12.78° C | 58% | 1013.4 hPa | 0 mm | - | - | - |
| 1778092175 | 12.22° C | 59% | 1013.5 hPa | 0 mm | - | - | - |
| 1778091875 | 12.22° C | 60% | 1013.3 hPa | 0 mm | - | - | - |
| 1778091575 | 11.67° C | 60% | 1013.3 hPa | 0 mm | - | - | - |
| 1778091275 | 11.67° C | 61% | 1013.3 hPa | 0 mm | - | - | - |
| 1778090975 | 11.11° C | 61% | 1013.3 hPa | 0 mm | - | - | - |
| 1778090675 | 11.11° C | 59% | 1013.3 hPa | 0 mm | - | - | - |
| 1778090375 | 10.56° C | 61% | 1013.3 hPa | 0 mm | - | - | - |
| 1778090075 | 10.56° C | 59% | 1013.3 hPa | 0 mm | - | - | - |
| 1778089775 | 10.56° C | 60% | 1013.1 hPa | 0 mm | - | - | - |
| 1778089475 | 10° C | 63% | 1013.1 hPa | 0 mm | - | - | - |
| 1778089175 | 10° C | 64% | 1013 hPa | 0 mm | - | - | - |
| 1778088875 | 10° C | 65% | 1013 hPa | 0 mm | - | - | - |
| 1778088574 | 9.44° C | 65% | 1013 hPa | 0 mm | - | - | - |
| 1778088275 | 9.44° C | 67% | 1013 hPa | 0 mm | - | - | - |
| 1778087975 | 9.44° C | 66% | 1013.1 hPa | 0 mm | - | - | - |
| 1778087674 | 9.44° C | 68% | 1013 hPa | 0 mm | - | - | - |
| 1778087374 | 8.89° C | 67% | 1012.8 hPa | 0 mm | - | - | - |
| 1778087074 | 8.89° C | 68% | 1012.7 hPa | 0 mm | - | - | - |
| 1778086774 | 8.89° C | 69% | 1012.8 hPa | 0 mm | - | - | - |
* Rain latest hour (hover to see other rain measurements)
** Current wind speed in m/s (hover to see current wind gust speed)